Regional Weather Roundup
Issued by NWS

Home | Current Version | Previous Version | Text Only | Print | Product List | Glossary On
Versions: 1 2 3 4 5 6 7 8 9 10 11 12 13 14 15 16 17 18 19 20 21 22 23 24 25 26 27 28 29 30 31 32 33 34 35 36 37 38 39 40 41 42 43 44 45 46 47 48 49 50
000
ASUS43 KFSD 161002
RWRSD

WEATHER ROUNDUP FOR SOUTH DAKOTA
NATIONAL WEATHER SERVICE SIOUX FALLS SD
500 AM CDT WED APR 16 2014

NOTE: "FAIR" INDICATES FEW OR NO CLOUDS BELOW 12,000 FEET WITH NO
SIGNIFICANT WEATHER AND/OR OBSTRUCTIONS TO VISIBILITY.


SDZ001>005-009-010-012>017-161100-
NORTHWEST AND NORTH CENTRAL SOUTH DAKOTA

CITY           SKY/WX    TMP DP  RH WIND       PRES   REMARKS
MOBRIDGE       CLOUDY    31  25  78 E18       29.64S WCI  19
$$

SDZ012>016-024>037-041>051-057-063-072>074-161100-
SOUTHWEST AND SOUTH CENTRAL SOUTH DAKOTA

CITY           SKY/WX    TMP DP  RH WIND       PRES   REMARKS
RAPID CTY ARPT CLOUDY    39  36  89 N14       29.64R
PIERRE         CLOUDY    36  26  67 NE17      29.59R
CUSTER         CLOUDY    35  30  82 NW9       29.64R WCI  28
ELLSWORTH AFB  CLOUDY    40  38  92 N15       29.64S
PHILIP         FLURRIES  34  29  82 N9        29.63R WCI  27
PINE RIDGE     LGT RAIN  40  37  89 N15       29.63R
WINNER         PTSUNNY   51  27  39 W18G24    29.50R
$$

SDZ004>011-016>023-039-040-161100-
NORTHEAST SOUTH DAKOTA

CITY           SKY/WX    TMP DP  RH WIND       PRES   REMARKS
ABERDEEN       CLOUDY    32  20  61 E25       29.75F WCI  19
WATERTOWN      CLOUDY    30  20  66 E23G35    29.71S WCI  17
SISSETON         N/A     30  22  72 SE21G26   29.85R WCI  17
$$

SDZ017-020-022-023-036>040-048>070-161100-
SOUTHEAST SOUTH DAKOTA

CITY           SKY/WX    TMP DP  RH WIND       PRES   REMARKS
SIOUX FALLS    CLOUDY    42  29  59 SE14      29.63F
HURON          CLOUDY    38  26  62 E18G24    29.59S
MITCHELL       CLOUDY    44  29  55 SE13      29.54F
YANKTON        CLOUDY    50  25  37 S17G23    29.60R
$$

ABBREVIATIONS USED IN REMARKS
   TC - TEMPERATURE IN CELSIUS
  WCI - WIND CHILL INDEX
   HX - HEAT INDEX
  VSB - VISIBILITY




USA.gov is the U.S. government's official web portal to all federal, state and local government web resources and services.